Time,TemperatureF,DewpointF,PressureIn,WindDirection,WindDirectionDegrees,WindSpeedMPH,WindSpeedGustMPH,Humidity,HourlyPrecipIn,Conditions,Clouds,dailyrainin,SoftwareType,DateUTC
2013-03-08 00:00:00,31.3,25.2,30.00,NNE,24,6.9,6.9,78,0.00,,---,0.00,VWS V14.01,2013-03-08 05:00:00,
2013-03-08 00:02:00,31.1,25.0,30.00,North,356,3.6,7.8,78,0.00,,---,0.00,VWS V14.01,2013-03-08 05:02:00,
2013-03-08 00:07:00,31.1,25.0,30.00,NNE,18,3.6,7.8,78,0.00,,---,0.00,VWS V14.01,2013-03-08 05:07:00,
2013-03-08 00:12:00,31.1,25.0,30.00,NNE,13,0.0,4.5,78,0.00,,---,0.00,VWS V14.01,2013-03-08 05:12:00,
2013-03-08 00:17:00,31.1,25.0,30.00,NNE,13,2.7,5.4,78,0.00,,---,0.00,VWS V14.01,2013-03-08 05:17:00,
2013-03-08 00:22:00,31.1,25.0,30.00,NNE,13,3.1,4.5,78,0.00,,---,0.00,VWS V14.01,2013-03-08 05:22:00,
2013-03-08 00:27:00,31.3,25.2,30.00,NNE,12,3.1,4.5,78,0.00,,---,0.00,VWS V14.01,2013-03-08 05:27:00,
2013-03-08 00:32:00,31.1,25.0,30.00,NE,41,4.9,6.7,78,0.00,,---,0.00,VWS V14.01,2013-03-08 05:32:00,
2013-03-08 00:37:00,31.1,25.0,30.00,NNE,15,0.0,4.5,78,0.00,,---,0.00,VWS V14.01,2013-03-08 05:37:00,
2013-03-08 00:42:00,31.1,25.0,30.00,NNE,15,0.0,3.6,78,0.00,,---,0.00,VWS V14.01,2013-03-08 05:42:00,
2013-03-08 00:47:00,30.9,24.9,30.00,North,356,0.0,5.4,78,0.00,,---,0.00,VWS V14.01,2013-03-08 05:47:00,
2013-03-08 00:52:00,30.9,24.9,30.00,North,6,0.0,5.4,78,0.00,,---,0.00,VWS V14.01,2013-03-08 05:52:00,
2013-03-08 00:57:00,30.9,24.9,30.00,North,351,0.0,5.4,78,0.00,,---,0.00,VWS V14.01,2013-03-08 05:57:00,
2013-03-08 01:02:00,30.7,24.7,30.00,NNE,18,3.6,5.4,78,0.00,,---,0.00,VWS V14.01,2013-03-08 06:02:00,
2013-03-08 01:07:00,30.6,24.5,30.00,North,8,5.4,5.8,78,0.00,,---,0.00,VWS V14.01,2013-03-08 06:07:00,
2013-03-08 01:12:00,30.6,24.5,30.00,WNW,294,4.0,6.9,78,0.00,,---,0.00,VWS V14.01,2013-03-08 06:12:00,
2013-03-08 01:17:00,30.6,24.5,30.00,North,356,0.0,4.9,78,0.00,,---,0.00,VWS V14.01,2013-03-08 06:17:00,
2013-03-08 01:22:00,30.6,24.5,30.00,North,351,4.9,4.9,78,0.00,,---,0.00,VWS V14.01,2013-03-08 06:22:00,
2013-03-08 01:27:00,30.4,24.4,30.00,North,351,3.1,6.3,78,0.00,,---,0.00,VWS V14.01,2013-03-08 06:27:00,
2013-03-08 01:32:00,30.4,24.4,30.00,ENE,68,3.6,6.9,78,0.00,,---,0.00,VWS V14.01,2013-03-08 06:32:00,
2013-03-08 01:37:00,30.4,24.4,30.00,North,9,4.9,6.7,78,0.00,,---,0.00,VWS V14.01,2013-03-08 06:37:00,
2013-03-08 01:42:00,30.2,24.2,30.00,North,356,2.7,4.9,78,0.00,,---,0.00,VWS V14.01,2013-03-08 06:42:00,
2013-03-08 01:47:00,30.2,24.2,30.00,NNE,18,5.4,6.7,78,0.00,,---,0.00,VWS V14.01,2013-03-08 06:47:00,
2013-03-08 01:52:00,30.0,24.0,30.00,NNE,22,0.0,6.7,78,0.00,,---,0.00,VWS V14.01,2013-03-08 06:52:00,
2013-03-08 01:57:00,30.0,24.0,30.00,NNE,24,3.6,4.5,78,0.00,,---,0.00,VWS V14.01,2013-03-08 06:57:00,
2013-03-08 02:02:00,30.0,24.0,30.00,North,356,0.0,5.4,78,0.00,,---,0.00,VWS V14.01,2013-03-08 07:02:00,
2013-03-08 02:07:00,30.0,24.0,30.00,NNE,22,3.1,6.3,78,0.00,,---,0.00,VWS V14.01,2013-03-08 07:07:00,
2013-03-08 02:12:00,29.8,23.8,30.00,ESE,119,0.0,7.4,78,0.00,,---,0.00,VWS V14.01,2013-03-08 07:12:00,
2013-03-08 02:17:00,29.8,23.8,30.00,North,351,3.6,7.8,78,0.00,,---,0.00,VWS V14.01,2013-03-08 07:17:00,
2013-03-08 02:22:00,29.8,23.8,30.00,NW,317,0.0,8.3,78,0.00,,---,0.00,VWS V14.01,2013-03-08 07:22:00,
2013-03-08 02:27:00,29.8,23.8,30.00,North,6,0.0,6.9,78,0.00,,---,0.00,VWS V14.01,2013-03-08 07:27:00,
2013-03-08 02:32:00,29.8,23.8,30.00,North,6,4.0,4.0,78,0.00,,---,0.00,VWS V14.01,2013-03-08 07:32:00,
2013-03-08 02:37:00,29.8,23.8,29.97,North,5,4.5,4.5,78,0.00,,---,0.00,VWS V14.01,2013-03-08 07:37:00,
2013-03-08 02:42:00,29.8,23.8,29.97,North,351,2.7,5.4,78,0.00,,---,0.00,VWS V14.01,2013-03-08 07:42:00,
2013-03-08 02:47:00,29.8,23.8,29.97,NNE,15,8.7,8.7,78,0.00,,---,0.00,VWS V14.01,2013-03-08 07:47:00,
2013-03-08 02:52:00,29.7,23.6,29.97,WNW,299,6.3,6.7,78,0.00,,---,0.00,VWS V14.01,2013-03-08 07:52:00,
2013-03-08 02:57:00,29.7,23.6,29.97,North,351,2.7,4.9,78,0.00,,---,0.00,VWS V14.01,2013-03-08 07:57:00,
2013-03-08 03:02:00,29.7,23.6,29.97,North,356,0.0,4.0,78,0.00,,---,0.00,VWS V14.01,2013-03-08 08:02:00,
2013-03-08 03:08:00,29.7,23.6,29.97,North,356,0.0,4.9,78,0.00,,---,0.00,VWS V14.01,2013-03-08 08:08:00,
2013-03-08 03:13:00,29.7,23.6,29.97,North,6,3.6,5.8,78,0.00,,---,0.00,VWS V14.01,2013-03-08 08:13:00,
2013-03-08 03:18:00,29.7,23.6,29.97,NNW,347,3.6,6.3,78,0.00,,---,0.00,VWS V14.01,2013-03-08 08:18:00,
2013-03-08 03:23:00,29.5,23.5,29.97,North,351,0.0,8.3,78,0.00,,---,0.00,VWS V14.01,2013-03-08 08:23:00,
2013-03-08 03:28:00,29.5,23.5,29.97,NNE,17,3.6,6.3,78,0.00,,---,0.00,VWS V14.01,2013-03-08 08:28:00,
2013-03-08 03:33:00,29.3,23.3,29.97,NE,53,0.0,6.3,78,0.00,,---,0.00,VWS V14.01,2013-03-08 08:33:00,
2013-03-08 03:38:00,29.5,23.5,29.97,North,4,0.0,5.8,78,0.00,,---,0.00,VWS V14.01,2013-03-08 08:38:00,
2013-03-08 03:43:00,29.5,23.5,29.97,North,356,3.1,4.5,78,0.00,,---,0.00,VWS V14.01,2013-03-08 08:43:00,
2013-03-08 03:47:00,29.3,23.3,29.97,North,4,4.5,4.9,78,0.00,,---,0.00,VWS V14.01,2013-03-08 08:47:00,
2013-03-08 03:52:00,29.3,23.6,29.97,NNE,30,0.0,6.7,79,0.00,,---,0.00,VWS V14.01,2013-03-08 08:52:00,
2013-03-08 03:58:00,29.1,23.4,29.97,NNE,32,3.6,8.3,79,0.00,,---,0.00,VWS V14.01,2013-03-08 08:58:00,
2013-03-08 04:03:00,29.1,23.4,29.97,ENE,57,4.5,5.8,79,0.00,,---,0.00,VWS V14.01,2013-03-08 09:03:00,
2013-03-08 04:08:00,29.1,23.4,29.97,NNE,22,0.0,5.8,79,0.00,,---,0.00,VWS V14.01,2013-03-08 09:08:00,
2013-03-08 04:13:00,29.1,23.4,29.97,NE,45,3.6,6.3,79,0.00,,---,0.00,VWS V14.01,2013-03-08 09:13:00,
2013-03-08 04:18:00,29.1,23.4,29.97,NNE,23,5.4,6.7,79,0.00,,---,0.00,VWS V14.01,2013-03-08 09:18:00,
2013-03-08 04:23:00,29.1,23.4,29.97,East,83,6.3,6.9,79,0.00,,---,0.00,VWS V14.01,2013-03-08 09:23:00,
2013-03-08 04:28:00,29.1,23.4,29.97,ENE,68,5.8,8.3,79,0.00,,---,0.00,VWS V14.01,2013-03-08 09:28:00,
2013-03-08 04:33:00,28.9,23.3,29.97,NE,42,3.6,7.4,79,0.00,,---,0.00,VWS V14.01,2013-03-08 09:33:00,
2013-03-08 04:38:00,28.9,23.3,29.97,WNW,296,4.0,6.9,79,0.00,,---,0.00,VWS V14.01,2013-03-08 09:38:00,
2013-03-08 04:43:00,28.9,23.3,29.97,NE,45,0.0,8.7,79,0.00,,---,0.00,VWS V14.01,2013-03-08 09:43:00,
2013-03-08 04:48:00,28.9,23.3,29.97,NNW,336,4.0,5.8,79,0.00,,---,0.00,VWS V14.01,2013-03-08 09:48:00,
2013-03-08 04:53:00,28.9,23.3,29.97,NNE,30,5.4,9.6,79,0.00,,---,0.00,VWS V14.01,2013-03-08 09:53:00,
2013-03-08 04:58:00,28.9,23.3,29.97,North,6,0.0,7.4,79,0.00,,---,0.00,VWS V14.01,2013-03-08 09:58:00,
2013-03-08 05:03:00,28.9,23.3,29.97,NNE,21,2.7,8.7,79,0.00,,---,0.00,VWS V14.01,2013-03-08 10:03:00,
2013-03-08 05:08:00,28.9,23.3,29.97,North,4,0.0,6.9,79,0.00,,---,0.00,VWS V14.01,2013-03-08 10:08:00,
2013-03-08 05:13:00,28.9,23.3,29.97,NNW,339,0.0,8.3,79,0.00,,---,0.00,VWS V14.01,2013-03-08 10:13:00,
2013-03-08 05:18:00,28.9,23.3,29.97,NNE,30,4.0,7.4,79,0.00,,---,0.00,VWS V14.01,2013-03-08 10:18:00,
2013-03-08 05:23:00,28.9,23.3,29.97,North,356,0.0,6.7,79,0.00,,---,0.00,VWS V14.01,2013-03-08 10:23:00,
2013-03-08 05:28:00,28.9,23.3,29.97,East,98,4.9,7.4,79,0.00,,---,0.00,VWS V14.01,2013-03-08 10:28:00,
2013-03-08 05:33:00,28.9,23.3,29.97,NNE,24,7.4,7.4,79,0.00,,---,0.00,VWS V14.01,2013-03-08 10:33:00,
2013-03-08 05:38:00,28.9,23.3,29.97,NNE,30,4.5,7.8,79,0.00,,---,0.00,VWS V14.01,2013-03-08 10:38:00,
2013-03-08 05:43:00,29.1,23.4,29.97,NNE,26,3.1,5.8,79,0.00,,---,0.00,VWS V14.01,2013-03-08 10:43:00,
2013-03-08 05:48:00,29.1,23.4,29.97,NE,35,5.8,5.8,79,0.00,,---,0.00,VWS V14.01,2013-03-08 10:48:00,
2013-03-08 05:53:00,29.1,23.4,29.97,North,11,5.4,7.8,79,0.00,,---,0.00,VWS V14.01,2013-03-08 10:53:00,
2013-03-08 05:58:00,29.1,23.4,29.97,NNE,19,9.2,9.6,79,0.00,,---,0.00,VWS V14.01,2013-03-08 10:58:00,
2013-03-08 06:03:00,29.1,23.4,29.97,NE,51,4.0,7.8,79,0.00,,---,0.00,VWS V14.01,2013-03-08 11:03:00,
2013-03-08 06:08:00,29.1,23.4,29.97,North,351,4.5,9.6,79,0.00,,---,0.00,VWS V14.01,2013-03-08 11:08:00,
2013-03-08 06:13:00,29.1,23.1,29.97,North,356,4.5,7.4,78,0.00,,---,0.00,VWS V14.01,2013-03-08 11:13:00,
2013-03-08 06:18:00,28.9,23.0,29.97,NNE,15,4.5,8.3,78,0.00,,---,0.00,VWS V14.01,2013-03-08 11:18:00,
2013-03-08 06:23:00,28.9,23.0,29.97,NNE,23,6.9,8.3,78,0.00,,---,0.00,VWS V14.01,2013-03-08 11:23:00,
2013-03-08 06:28:00,28.9,23.0,29.97,NNE,12,3.1,8.3,78,0.00,,---,0.00,VWS V14.01,2013-03-08 11:28:00,
2013-03-08 06:33:00,28.9,23.0,29.97,North,6,4.0,7.4,78,0.00,,---,0.00,VWS V14.01,2013-03-08 11:33:00,
2013-03-08 06:38:00,28.9,23.0,29.97,NE,42,3.1,6.9,78,0.00,,---,0.00,VWS V14.01,2013-03-08 11:38:00,
2013-03-08 06:43:00,28.8,22.8,29.97,NNE,31,4.0,8.7,78,0.00,,---,0.00,VWS V14.01,2013-03-08 11:43:00,
2013-03-08 06:48:00,28.8,22.8,29.97,North,356,5.8,8.7,78,0.00,,---,0.00,VWS V14.01,2013-03-08 11:48:00,
2013-03-08 06:53:00,28.9,23.0,29.97,WNW,286,2.7,6.9,78,0.00,,---,0.00,VWS V14.01,2013-03-08 11:53:00,
2013-03-08 06:58:00,28.9,22.6,29.97,NNW,337,0.0,10.1,77,0.00,,---,0.00,VWS V14.01,2013-03-08 11:58:00,
2013-03-08 07:03:00,28.9,22.6,29.97,NNE,16,5.4,8.7,77,0.00,,---,0.00,VWS V14.01,2013-03-08 12:03:00,
2013-03-08 07:08:00,28.9,22.6,29.97,NNE,13,5.8,10.1,77,0.00,,---,0.00,VWS V14.01,2013-03-08 12:08:00,
2013-03-08 07:13:00,28.9,22.6,29.97,West,281,4.5,11.0,77,0.00,,---,0.00,VWS V14.01,2013-03-08 12:13:00,
2013-03-08 07:18:00,29.1,22.8,29.97,North,351,6.7,6.9,77,0.00,,---,0.00,VWS V14.01,2013-03-08 12:18:00,
2013-03-08 07:23:00,29.1,22.8,29.97,NNE,26,4.5,10.1,77,0.00,,---,0.00,VWS V14.01,2013-03-08 12:23:00,
2013-03-08 07:28:00,29.1,22.8,29.97,NE,43,8.3,8.7,77,0.00,,---,0.00,VWS V14.01,2013-03-08 12:28:00,
2013-03-08 07:33:00,29.3,23.0,29.97,NNE,17,6.9,11.2,77,0.00,,---,0.00,VWS V14.01,2013-03-08 12:33:00,
2013-03-08 07:38:00,29.3,22.7,29.97,NE,37,5.8,12.5,76,0.00,,---,0.00,VWS V14.01,2013-03-08 12:38:00,
2013-03-08 07:43:00,29.5,22.9,29.97,ENE,58,6.9,7.8,76,0.00,,---,0.00,VWS V14.01,2013-03-08 12:43:00,
2013-03-08 07:48:00,29.5,22.9,29.97,ENE,72,2.7,10.5,76,0.00,,---,0.00,VWS V14.01,2013-03-08 12:48:00,
2013-03-08 07:53:00,29.5,22.9,29.97,North,2,3.6,9.2,76,0.00,,---,0.00,VWS V14.01,2013-03-08 12:53:00,
2013-03-08 07:58:00,29.7,23.0,29.97,North,6,3.1,8.3,76,0.00,,---,0.00,VWS V14.01,2013-03-08 12:58:00,
2013-03-08 08:03:00,29.7,22.7,29.97,NNE,13,3.1,7.4,75,0.00,,---,0.00,VWS V14.01,2013-03-08 13:03:00,
2013-03-08 08:09:00,29.7,22.7,29.97,NE,46,5.8,11.6,75,0.00,,---,0.00,VWS V14.01,2013-03-08 13:09:00,
2013-03-08 08:14:00,29.8,22.6,29.97,NW,307,4.5,10.1,74,0.00,,---,0.00,VWS V14.01,2013-03-08 13:14:00,
2013-03-08 08:19:00,30.0,22.8,29.97,NNE,33,4.9,8.3,74,0.00,,---,0.00,VWS V14.01,2013-03-08 13:19:00,
2013-03-08 08:24:00,30.2,22.9,29.97,NNE,26,3.6,9.2,74,0.00,,---,0.00,VWS V14.01,2013-03-08 13:24:00,
2013-03-08 08:29:00,30.2,22.9,29.97,NE,44,4.9,8.7,74,0.00,,---,0.00,VWS V14.01,2013-03-08 13:29:00,
2013-03-08 08:34:00,30.2,22.6,29.97,NE,40,4.9,9.2,73,0.00,,---,0.00,VWS V14.01,2013-03-08 13:34:00,
2013-03-08 08:39:00,30.2,22.3,29.97,NE,49,5.8,9.2,72,0.00,,---,0.00,VWS V14.01,2013-03-08 13:39:00,
2013-03-08 08:44:00,30.2,21.9,29.97,NNE,18,3.1,9.2,71,0.00,,---,0.00,VWS V14.01,2013-03-08 13:44:00,
2013-03-08 08:49:00,30.0,21.8,29.97,NNE,20,6.3,9.2,71,0.00,,---,0.00,VWS V14.01,2013-03-08 13:49:00,
2013-03-08 08:54:00,30.2,21.9,29.97,NNE,22,5.4,10.1,71,0.00,,---,0.00,VWS V14.01,2013-03-08 13:54:00,
2013-03-08 08:59:00,30.4,22.1,29.97,North,9,3.1,11.0,71,0.00,,---,0.00,VWS V14.01,2013-03-08 13:59:00,
2013-03-08 09:04:00,30.4,21.8,29.97,North,356,4.0,11.6,70,0.00,,---,0.00,VWS V14.01,2013-03-08 14:04:00,
2013-03-08 09:09:00,30.6,22.0,30.00,ENE,70,5.4,10.1,70,0.00,,---,0.00,VWS V14.01,2013-03-08 14:09:00,
2013-03-08 09:14:00,30.9,22.3,30.00,North,8,4.5,10.1,70,0.00,,---,0.00,VWS V14.01,2013-03-08 14:14:00,
2013-03-08 09:19:00,31.3,22.6,30.00,NNE,28,6.3,7.8,70,0.00,,---,0.00,VWS V14.01,2013-03-08 14:19:00,
2013-03-08 09:24:00,31.3,22.3,30.00,NNE,16,4.0,4.0,69,0.00,,---,0.00,VWS V14.01,2013-03-08 14:24:00,
2013-03-08 09:29:00,30.9,20.9,30.00,NE,39,6.9,16.3,66,0.00,,---,0.00,VWS V14.01,2013-03-08 14:29:00,
2013-03-08 09:34:00,31.3,21.3,30.00,NE,41,4.0,10.5,66,0.00,,---,0.00,VWS V14.01,2013-03-08 14:34:00,
2013-03-08 09:39:00,31.5,21.4,30.00,North,4,3.1,11.0,66,0.00,,---,0.00,VWS V14.01,2013-03-08 14:39:00,
2013-03-08 09:44:00,31.8,21.0,30.00,North,4,4.9,13.9,64,0.00,,---,0.00,VWS V14.01,2013-03-08 14:44:00,
2013-03-08 09:49:00,32.4,20.8,30.00,NNE,29,4.5,10.1,62,0.00,,---,0.00,VWS V14.01,2013-03-08 14:49:00,
2013-03-08 09:54:00,32.5,20.2,30.00,NNE,12,6.7,12.1,60,0.00,,---,0.00,VWS V14.01,2013-03-08 14:54:00,
2013-03-08 09:59:00,33.1,20.3,30.00,NE,46,3.1,8.7,59,0.00,,---,0.00,VWS V14.01,2013-03-08 14:59:00,
2013-03-08 10:04:00,32.9,18.9,30.00,NNE,26,10.5,11.6,56,0.00,,---,0.00,VWS V14.01,2013-03-08 15:04:00,
2013-03-08 10:09:00,33.1,18.3,30.00,NNE,28,5.8,11.0,54,0.00,,---,0.00,VWS V14.01,2013-03-08 15:09:00,
2013-03-08 10:14:00,33.3,18.0,30.00,NE,45,6.9,11.2,53,0.00,,---,0.00,VWS V14.01,2013-03-08 15:14:00,
2013-03-08 10:19:00,33.4,17.7,30.00,NE,37,6.7,6.7,52,0.00,,---,0.00,VWS V14.01,2013-03-08 15:19:00,
2013-03-08 10:24:00,34.0,18.2,30.00,NNE,18,6.3,6.3,52,0.00,,---,0.00,VWS V14.01,2013-03-08 15:24:00,
2013-03-08 10:29:00,34.0,17.3,30.00,NNE,13,7.4,9.6,50,0.00,,---,0.00,VWS V14.01,2013-03-08 15:29:00,
2013-03-08 10:34:00,33.6,16.0,30.00,NE,55,7.4,10.1,48,0.00,,---,0.00,VWS V14.01,2013-03-08 15:34:00,
2013-03-08 10:39:00,33.6,17.0,29.97,NNE,13,3.6,10.1,50,0.00,,---,0.00,VWS V14.01,2013-03-08 15:39:00,
2013-03-08 10:44:00,34.0,17.3,29.97,NNE,19,4.0,10.5,50,0.00,,---,0.00,VWS V14.01,2013-03-08 15:44:00,
2013-03-08 10:49:00,34.2,16.5,29.97,NNE,13,10.1,10.1,48,0.00,,---,0.00,VWS V14.01,2013-03-08 15:49:00,
2013-03-08 10:54:00,34.0,15.4,30.00,North,6,5.8,5.8,46,0.00,,---,0.00,VWS V14.01,2013-03-08 15:54:00,
2013-03-08 10:59:00,33.8,15.2,30.00,NE,44,5.4,5.4,46,0.00,,---,0.00,VWS V14.01,2013-03-08 15:59:00,
2013-03-08 11:04:00,34.0,15.4,30.00,North,5,4.0,4.0,46,0.00,,---,0.00,VWS V14.01,2013-03-08 16:04:00,
2013-03-08 11:09:00,34.3,15.7,30.00,ENE,65,7.4,8.7,46,0.00,,---,0.00,VWS V14.01,2013-03-08 16:09:00,
2013-03-08 11:14:00,34.3,16.2,30.00,NE,42,6.9,6.9,47,0.00,,---,0.00,VWS V14.01,2013-03-08 16:14:00,
2013-03-08 11:19:00,34.5,16.4,30.00,NNE,29,8.7,8.7,47,0.00,,---,0.00,VWS V14.01,2013-03-08 16:19:00,
2013-03-08 11:24:00,34.5,16.4,30.00,NE,51,5.4,5.8,47,0.00,,---,0.00,VWS V14.01,2013-03-08 16:24:00,
2013-03-08 11:29:00,34.3,16.2,30.00,NNE,12,4.9,8.7,47,0.00,,---,0.00,VWS V14.01,2013-03-08 16:29:00,
2013-03-08 11:34:00,34.3,16.2,30.00,NNE,31,2.7,6.9,47,0.00,,---,0.00,VWS V14.01,2013-03-08 16:34:00,
2013-03-08 11:39:00,34.0,15.9,30.00,NE,51,5.8,6.9,47,0.00,,---,0.00,VWS V14.01,2013-03-08 16:39:00,
2013-03-08 11:44:00,34.0,15.9,30.00,North,356,3.6,8.3,47,0.00,,---,0.00,VWS V14.01,2013-03-08 16:44:00,
2013-03-08 11:49:00,34.2,17.0,30.00,ENE,73,9.2,9.2,49,0.00,,---,0.00,VWS V14.01,2013-03-08 16:49:00,
2013-03-08 11:54:00,34.2,16.0,30.00,North,6,7.4,13.4,47,0.00,,---,0.00,VWS V14.01,2013-03-08 16:54:00,
2013-03-08 11:59:00,34.5,16.4,30.00,WNW,295,9.6,13.9,47,0.00,,---,0.00,VWS V14.01,2013-03-08 16:59:00,
2013-03-08 12:04:00,34.5,15.9,30.00,NNW,331,4.5,12.1,46,0.00,,---,0.00,VWS V14.01,2013-03-08 17:04:00,
2013-03-08 12:09:00,35.1,15.9,30.00,NNE,27,10.5,11.6,45,0.00,,---,0.00,VWS V14.01,2013-03-08 17:09:00,
2013-03-08 12:14:00,35.6,16.4,30.00,North,9,5.8,6.3,45,0.00,,---,0.00,VWS V14.01,2013-03-08 17:14:00,
2013-03-08 12:19:00,36.7,16.3,30.00,NNE,32,3.6,11.2,43,0.00,,---,0.00,VWS V14.01,2013-03-08 17:19:00,
2013-03-08 12:24:00,36.9,15.4,30.00,NNE,29,9.2,9.2,41,0.00,,---,0.00,VWS V14.01,2013-03-08 17:24:00,
2013-03-08 12:29:00,36.9,14.8,30.00,NNE,18,4.0,11.6,40,0.00,,---,0.00,VWS V14.01,2013-03-08 17:29:00,
2013-03-08 12:34:00,36.7,14.6,30.00,ENE,66,4.5,10.5,40,0.00,,---,0.00,VWS V14.01,2013-03-08 17:34:00,
2013-03-08 12:39:00,36.9,14.8,30.00,NE,51,7.4,12.1,40,0.00,,---,0.00,VWS V14.01,2013-03-08 17:39:00,
2013-03-08 12:44:00,35.8,14.4,30.00,NNE,18,6.7,9.6,41,0.00,,---,0.00,VWS V14.01,2013-03-08 17:44:00,
2013-03-08 12:49:00,35.4,15.2,30.00,NNE,18,3.1,4.5,43,0.00,,---,0.00,VWS V14.01,2013-03-08 17:49:00,
2013-03-08 12:54:00,35.2,16.0,30.00,NNE,19,10.1,11.2,45,0.00,,---,0.00,VWS V14.01,2013-03-08 17:54:00,
2013-03-08 12:59:00,35.1,16.9,30.00,North,7,3.6,9.6,47,0.00,,---,0.00,VWS V14.01,2013-03-08 17:59:00,
2013-03-08 13:04:00,35.2,17.0,30.00,NNW,330,6.9,8.3,47,0.00,,---,0.00,VWS V14.01,2013-03-08 18:04:00,
2013-03-08 13:09:00,35.1,17.4,30.00,NE,51,6.3,14.8,48,0.00,,---,0.00,VWS V14.01,2013-03-08 18:09:00,
2013-03-08 13:14:00,35.2,18.0,30.00,North,7,9.2,9.2,49,0.00,,---,0.00,VWS V14.01,2013-03-08 18:14:00,
2013-03-08 13:19:00,35.2,18.0,30.00,NNE,12,4.0,10.1,49,0.00,,---,0.00,VWS V14.01,2013-03-08 18:19:00,
2013-03-08 13:24:00,35.1,17.4,30.00,NE,42,5.4,7.8,48,0.00,,---,0.00,VWS V14.01,2013-03-08 18:24:00,
2013-03-08 13:29:00,34.9,18.1,30.00,ENE,63,4.5,10.1,50,0.00,,---,0.00,VWS V14.01,2013-03-08 18:29:00,
2013-03-08 13:35:00,35.2,18.5,30.00,North,7,10.5,11.0,50,0.00,,---,0.00,VWS V14.01,2013-03-08 18:35:00,
2013-03-08 13:40:00,35.4,18.6,30.00,NNW,336,0.0,7.8,50,0.00,,---,0.00,VWS V14.01,2013-03-08 18:40:00,
2013-03-08 13:45:00,35.4,18.6,30.00,NNE,14,8.3,10.5,50,0.00,,---,0.00,VWS V14.01,2013-03-08 18:45:00,
2013-03-08 13:50:00,35.6,18.8,30.00,NNE,26,4.9,7.4,50,0.00,,---,0.00,VWS V14.01,2013-03-08 18:50:00,
2013-03-08 13:55:00,35.1,18.3,30.00,NNE,13,0.0,6.9,50,0.00,,---,0.00,VWS V14.01,2013-03-08 18:55:00,
2013-03-08 14:00:00,35.4,18.6,30.00,North,351,8.3,11.2,50,0.00,,---,0.00,VWS V14.01,2013-03-08 19:00:00,
2013-03-08 14:05:00,35.6,18.8,30.00,North,351,6.7,13.9,50,0.00,,---,0.00,VWS V14.01,2013-03-08 19:05:00,
2013-03-08 14:10:00,35.6,18.8,30.00,WNW,299,5.4,12.1,50,0.00,,---,0.00,VWS V14.01,2013-03-08 19:10:00,
2013-03-08 14:15:00,35.8,19.0,30.00,NE,35,0.0,7.8,50,0.00,,---,0.00,VWS V14.01,2013-03-08 19:15:00,
2013-03-08 14:20:00,36.3,19.5,30.00,NNW,338,7.4,7.4,50,0.00,,---,0.00,VWS V14.01,2013-03-08 19:20:00,
2013-03-08 14:25:00,36.3,19.0,30.00,ENE,59,4.9,11.0,49,0.00,,---,0.00,VWS V14.01,2013-03-08 19:25:00,
2013-03-08 14:30:00,36.5,18.2,30.00,NE,53,5.8,10.1,47,0.00,,---,0.00,VWS V14.01,2013-03-08 19:30:00,
2013-03-08 14:35:00,36.7,17.9,30.00,NNE,16,6.3,8.7,46,0.00,,---,0.00,VWS V14.01,2013-03-08 19:35:00,
2013-03-08 14:40:00,36.7,17.4,30.00,NNE,27,4.9,7.4,45,0.00,,---,0.00,VWS V14.01,2013-03-08 19:40:00,
2013-03-08 14:45:00,36.7,17.4,30.00,NE,35,6.3,11.0,45,0.00,,---,0.00,VWS V14.01,2013-03-08 19:45:00,
2013-03-08 14:50:00,36.3,17.5,30.00,ENE,58,6.9,8.7,46,0.00,,---,0.00,VWS V14.01,2013-03-08 19:50:00,
2013-03-08 14:55:00,36.0,17.2,30.03,NE,36,7.4,10.5,46,0.00,,---,0.00,VWS V14.01,2013-03-08 19:55:00,
2013-03-08 15:00:00,36.0,17.7,30.03,NE,51,7.4,9.6,47,0.00,,---,0.00,VWS V14.01,2013-03-08 20:00:00,
2013-03-08 15:05:00,36.1,17.9,30.03,NE,47,4.5,10.1,47,0.00,,---,0.00,VWS V14.01,2013-03-08 20:05:00,
2013-03-08 15:10:00,36.0,17.2,30.03,NNE,24,6.7,11.2,46,0.00,,---,0.00,VWS V14.01,2013-03-08 20:10:00,
2013-03-08 15:15:00,36.3,17.5,30.03,NNE,15,4.9,7.4,46,0.00,,---,0.00,VWS V14.01,2013-03-08 20:15:00,
2013-03-08 15:20:00,36.7,16.8,30.03,NE,52,7.8,8.7,44,0.00,,---,0.00,VWS V14.01,2013-03-08 20:20:00,
2013-03-08 15:25:00,36.7,15.8,30.03,NE,44,6.3,9.2,42,0.00,,---,0.00,VWS V14.01,2013-03-08 20:25:00,
2013-03-08 15:30:00,36.9,15.4,30.03,NNE,21,6.9,10.1,41,0.00,,---,0.00,VWS V14.01,2013-03-08 20:30:00,
2013-03-08 15:35:00,37.0,15.5,30.03,North,356,6.3,8.3,41,0.00,,---,0.00,VWS V14.01,2013-03-08 20:35:00,
2013-03-08 15:40:00,37.0,15.0,30.03,ENE,59,9.6,11.0,40,0.00,,---,0.00,VWS V14.01,2013-03-08 20:40:00,
2013-03-08 15:45:00,37.0,14.4,30.03,ENE,63,3.6,8.3,39,0.00,,---,0.00,VWS V14.01,2013-03-08 20:45:00,
2013-03-08 15:50:00,37.2,14.6,30.03,NNE,19,3.6,8.3,39,0.00,,---,0.00,VWS V14.01,2013-03-08 20:50:00,
2013-03-08 15:55:00,37.0,14.4,30.03,NE,42,4.0,9.6,39,0.00,,---,0.00,VWS V14.01,2013-03-08 20:55:00,
2013-03-08 16:00:00,37.0,14.4,30.03,NNE,21,10.5,11.6,39,0.00,,---,0.00,VWS V14.01,2013-03-08 21:00:00,
2013-03-08 16:05:00,37.0,14.4,30.03,NE,47,7.8,9.6,39,0.00,,---,0.00,VWS V14.01,2013-03-08 21:05:00,
2013-03-08 16:10:00,37.2,14.6,30.03,NE,47,4.5,7.4,39,0.00,,---,0.00,VWS V14.01,2013-03-08 21:10:00,
2013-03-08 16:15:00,37.2,14.6,30.03,NNE,17,4.9,9.2,39,0.00,,---,0.00,VWS V14.01,2013-03-08 21:15:00,
2013-03-08 16:20:00,37.4,14.7,30.03,North,356,2.7,11.0,39,0.00,,---,0.00,VWS V14.01,2013-03-08 21:20:00,
2013-03-08 16:25:00,37.2,14.0,30.03,ENE,63,4.9,9.2,38,0.00,,---,0.00,VWS V14.01,2013-03-08 21:25:00,
2013-03-08 16:30:00,37.2,14.0,30.03,NE,50,5.4,10.1,38,0.00,,---,0.00,VWS V14.01,2013-03-08 21:30:00,
2013-03-08 16:35:00,37.2,14.0,30.06,NNE,18,4.0,10.5,38,0.00,,---,0.00,VWS V14.01,2013-03-08 21:35:00,
2013-03-08 16:40:00,37.2,13.4,30.06,North,11,7.8,9.2,37,0.00,,---,0.00,VWS V14.01,2013-03-08 21:40:00,
2013-03-08 16:45:00,37.0,12.6,30.06,NNE,31,0.0,8.3,36,0.00,,---,0.00,VWS V14.01,2013-03-08 21:45:00,
2013-03-08 16:50:00,37.0,13.2,30.06,ENE,60,6.3,8.7,37,0.00,,---,0.00,VWS V14.01,2013-03-08 21:50:00,
2013-03-08 16:55:00,36.9,12.4,30.06,ENE,75,4.9,10.5,36,0.00,,---,0.00,VWS V14.01,2013-03-08 21:55:00,
2013-03-08 17:00:00,37.0,13.8,30.06,NE,54,6.3,9.6,38,0.00,,---,0.00,VWS V14.01,2013-03-08 22:00:00,
2013-03-08 17:05:00,37.0,13.2,30.06,NNE,26,12.1,12.5,37,0.00,,---,0.00,VWS V14.01,2013-03-08 22:05:00,
2013-03-08 17:11:00,37.0,12.6,30.06,North,8,4.9,9.2,36,0.00,,---,0.00,VWS V14.01,2013-03-08 22:11:00,
2013-03-08 17:16:00,37.0,12.6,30.06,NE,36,5.8,6.3,36,0.00,,---,0.00,VWS V14.01,2013-03-08 22:16:00,
2013-03-08 17:21:00,36.9,12.4,30.09,NNE,33,0.0,6.7,36,0.00,,---,0.00,VWS V14.01,2013-03-08 22:21:00,
2013-03-08 17:26:00,36.9,12.4,30.09,ENE,58,7.8,8.3,36,0.00,,---,0.00,VWS V14.01,2013-03-08 22:26:00,
2013-03-08 17:31:00,36.7,12.3,30.09,NNE,28,6.3,8.3,36,0.00,,---,0.00,VWS V14.01,2013-03-08 22:31:00,
2013-03-08 17:36:00,36.7,12.3,30.09,NE,35,6.3,7.4,36,0.00,,---,0.00,VWS V14.01,2013-03-08 22:36:00,
2013-03-08 17:41:00,36.5,12.1,30.09,North,356,6.9,8.7,36,0.00,,---,0.00,VWS V14.01,2013-03-08 22:41:00,
2013-03-08 17:46:00,36.7,11.0,30.09,NNE,13,5.8,10.1,34,0.00,,---,0.00,VWS V14.01,2013-03-08 22:46:00,
2013-03-08 17:51:00,36.7,11.0,30.09,North,356,3.1,6.7,34,0.00,,---,0.00,VWS V14.01,2013-03-08 22:51:00,
2013-03-08 17:56:00,36.5,10.8,30.09,North,10,4.5,6.9,34,0.00,,---,0.00,VWS V14.01,2013-03-08 22:56:00,
2013-03-08 18:01:00,36.5,10.8,30.09,NE,40,6.9,8.3,34,0.00,,---,0.00,VWS V14.01,2013-03-08 23:01:00,
2013-03-08 18:06:00,36.7,10.3,30.09,North,2,7.4,11.0,33,0.00,,---,0.00,VWS V14.01,2013-03-08 23:06:00,
2013-03-08 18:11:00,36.7,10.3,30.09,NNE,29,5.8,9.6,33,0.00,,---,0.00,VWS V14.01,2013-03-08 23:11:00,
2013-03-08 18:16:00,36.7,10.3,30.09,North,11,4.5,8.3,33,0.00,,---,0.00,VWS V14.01,2013-03-08 23:16:00,
2013-03-08 18:21:00,36.5,10.1,30.12,NNE,16,5.4,10.1,33,0.00,,---,0.00,VWS V14.01,2013-03-08 23:21:00,
2013-03-08 18:26:00,36.3,10.0,30.12,NW,318,5.8,7.8,33,0.00,,---,0.00,VWS V14.01,2013-03-08 23:26:00,
2013-03-08 18:31:00,36.3,10.0,30.12,NNE,24,6.3,8.7,33,0.00,,---,0.00,VWS V14.01,2013-03-08 23:31:00,
2013-03-08 18:36:00,36.3,10.0,30.12,North,351,0.0,8.7,33,0.00,,---,0.00,VWS V14.01,2013-03-08 23:36:00,
2013-03-08 18:41:00,36.3,10.0,30.12,NNE,13,5.4,8.3,33,0.00,,---,0.00,VWS V14.01,2013-03-08 23:41:00,
2013-03-08 18:46:00,36.3,10.0,30.12,NNE,31,8.3,10.1,33,0.00,,---,0.00,VWS V14.01,2013-03-08 23:46:00,
2013-03-08 18:51:00,36.3,10.0,30.12,NNE,22,8.3,9.2,33,0.00,,---,0.00,VWS V14.01,2013-03-08 23:51:00,
2013-03-08 18:56:00,36.5,9.5,30.12,NNE,18,6.7,11.0,32,0.00,,---,0.00,VWS V14.01,2013-03-08 23:56:00,
2013-03-08 19:01:00,36.5,9.5,30.12,NE,43,5.8,11.2,32,0.00,,---,0.00,VWS V14.01,2013-03-09 00:01:00,
2013-03-08 19:06:00,36.7,9.6,30.12,NE,51,3.6,8.7,32,0.00,,---,0.00,VWS V14.01,2013-03-09 00:06:00,
2013-03-08 19:11:00,36.3,9.3,30.12,NNE,24,0.0,8.3,32,0.00,,---,0.00,VWS V14.01,2013-03-09 00:11:00,
2013-03-08 19:16:00,36.3,9.3,30.12,NE,38,6.9,10.5,32,0.00,,---,0.00,VWS V14.01,2013-03-09 00:16:00,
2013-03-08 19:21:00,36.5,9.5,30.12,NE,54,6.3,9.2,32,0.00,,---,0.00,VWS V14.01,2013-03-09 00:21:00,
2013-03-08 19:26:00,36.7,9.6,30.12,North,10,6.3,8.3,32,0.00,,---,0.00,VWS V14.01,2013-03-09 00:26:00,
2013-03-08 19:31:00,36.5,9.5,30.12,NE,42,3.1,8.7,32,0.00,,---,0.00,VWS V14.01,2013-03-09 00:31:00,
2013-03-08 19:36:00,36.7,8.9,30.15,NNE,19,2.7,10.5,31,0.00,,---,0.00,VWS V14.01,2013-03-09 00:36:00,
2013-03-08 19:41:00,36.7,8.9,30.15,NNE,19,7.8,9.2,31,0.00,,---,0.00,VWS V14.01,2013-03-09 00:41:00,
2013-03-08 19:46:00,36.7,8.9,30.15,NNE,31,4.5,7.4,31,0.00,,---,0.00,VWS V14.01,2013-03-09 00:46:00,
2013-03-08 19:51:00,36.7,8.9,30.15,ESE,102,5.4,9.2,31,0.00,,---,0.00,VWS V14.01,2013-03-09 00:51:00,
2013-03-08 19:56:00,36.9,9.1,30.15,North,11,3.1,10.5,31,0.00,,---,0.00,VWS V14.01,2013-03-09 00:56:00,
2013-03-08 20:01:00,36.9,9.1,30.15,NE,55,5.8,9.6,31,0.00,,---,0.00,VWS V14.01,2013-03-09 01:01:00,
2013-03-08 20:06:00,36.9,9.1,30.15,NNE,29,8.3,10.5,31,0.00,,---,0.00,VWS V14.01,2013-03-09 01:06:00,
2013-03-08 20:11:00,36.9,9.1,30.15,NNE,29,4.9,11.6,31,0.00,,---,0.00,VWS V14.01,2013-03-09 01:11:00,
2013-03-08 20:16:00,36.7,8.9,30.15,NNE,16,6.7,7.4,31,0.00,,---,0.00,VWS V14.01,2013-03-09 01:16:00,
2013-03-08 20:22:00,36.7,8.9,30.15,ENE,59,4.5,8.3,31,0.00,,---,0.00,VWS V14.01,2013-03-09 01:22:00,
2013-03-08 20:27:00,36.7,8.9,30.15,NE,41,8.3,11.0,31,0.04,,---,0.04,VWS V14.01,2013-03-09 01:27:00,
2013-03-08 20:32:00,36.7,8.9,30.15,NNE,15,6.7,11.2,31,0.04,,---,0.04,VWS V14.01,2013-03-09 01:32:00,
2013-03-08 20:37:00,36.7,8.9,30.15,NE,45,7.8,10.1,31,0.04,,---,0.04,VWS V14.01,2013-03-09 01:37:00,
2013-03-08 20:42:00,36.7,8.9,30.15,NNE,25,4.0,8.7,31,0.04,,---,0.04,VWS V14.01,2013-03-09 01:42:00,
2013-03-08 20:47:00,36.5,8.8,30.15,NE,42,7.4,8.7,31,0.04,,---,0.04,VWS V14.01,2013-03-09 01:47:00,
2013-03-08 20:52:00,36.7,8.9,30.15,NE,39,6.7,10.5,31,0.04,,---,0.04,VWS V14.01,2013-03-09 01:52:00,
2013-03-08 20:57:00,36.7,8.9,30.15,NNE,13,6.3,11.2,31,0.04,,---,0.04,VWS V14.01,2013-03-09 01:57:00,
2013-03-08 21:02:00,36.7,8.9,30.15,NE,50,0.0,11.6,31,0.04,,---,0.04,VWS V14.01,2013-03-09 02:02:00,
2013-03-08 21:07:00,36.7,8.9,30.15,NE,46,8.3,9.6,31,0.04,,---,0.04,VWS V14.01,2013-03-09 02:07:00,
2013-03-08 21:12:00,36.7,8.9,30.15,NNE,15,6.3,10.1,31,0.04,,---,0.04,VWS V14.01,2013-03-09 02:12:00,
2013-03-08 21:17:00,36.7,8.9,30.15,NE,54,8.3,10.1,31,0.04,,---,0.04,VWS V14.01,2013-03-09 02:17:00,
2013-03-08 21:22:00,36.7,8.9,30.15,NNE,14,2.7,9.6,31,0.04,,---,0.04,VWS V14.01,2013-03-09 02:22:00,
2013-03-08 21:27:00,36.5,8.8,30.15,ENE,57,5.8,10.1,31,0.04,,---,0.04,VWS V14.01,2013-03-09 02:27:00,
2013-03-08 21:32:00,36.3,8.6,30.15,ENE,65,4.9,6.9,31,0.00,,---,0.04,VWS V14.01,2013-03-09 02:32:00,
2013-03-08 21:37:00,36.5,8.8,30.15,North,5,8.3,10.5,31,0.00,,---,0.04,VWS V14.01,2013-03-09 02:37:00,
2013-03-08 21:42:00,36.3,8.6,30.15,NNE,19,5.8,9.2,31,0.00,,---,0.04,VWS V14.01,2013-03-09 02:42:00,
2013-03-08 21:47:00,36.3,8.6,30.15,NNE,15,6.9,8.3,31,0.00,,---,0.04,VWS V14.01,2013-03-09 02:47:00,
2013-03-08 21:52:00,36.1,8.4,30.15,North,356,2.7,7.8,31,0.00,,---,0.04,VWS V14.01,2013-03-09 02:52:00,
2013-03-08 21:57:00,36.1,9.1,30.15,North,11,4.5,6.9,32,0.00,,---,0.04,VWS V14.01,2013-03-09 02:57:00,
2013-03-08 22:02:00,36.1,9.1,30.15,NNE,21,0.0,8.3,32,0.00,,---,0.04,VWS V14.01,2013-03-09 03:02:00,
2013-03-08 22:07:00,36.0,9.0,30.15,NNE,31,5.4,6.7,32,0.00,,---,0.04,VWS V14.01,2013-03-09 03:07:00,
2013-03-08 22:12:00,36.1,9.1,30.15,NE,56,4.9,8.3,32,0.00,,---,0.04,VWS V14.01,2013-03-09 03:12:00,
2013-03-08 22:17:00,36.1,9.1,30.15,NE,45,6.3,10.5,32,0.00,,---,0.04,VWS V14.01,2013-03-09 03:17:00,
2013-03-08 22:22:00,36.1,9.1,30.15,NNW,338,8.7,8.7,32,0.00,,---,0.04,VWS V14.01,2013-03-09 03:22:00,
2013-03-08 22:27:00,36.0,8.3,30.15,NNE,26,3.6,7.4,31,0.00,,---,0.04,VWS V14.01,2013-03-09 03:27:00,
2013-03-08 22:32:00,36.1,8.4,30.15,NE,40,7.8,7.8,31,0.00,,---,0.04,VWS V14.01,2013-03-09 03:32:00,
2013-03-08 22:37:00,36.0,8.3,30.18,NNE,21,5.4,7.8,31,0.00,,---,0.04,VWS V14.01,2013-03-09 03:37:00,
2013-03-08 22:42:00,35.8,8.1,30.18,NE,35,0.0,6.9,31,0.00,,---,0.04,VWS V14.01,2013-03-09 03:42:00,
2013-03-08 22:47:00,35.6,8.0,30.18,NE,40,6.7,9.2,31,0.00,,---,0.04,VWS V14.01,2013-03-09 03:47:00,
2013-03-08 22:52:00,35.4,8.5,30.18,NE,39,4.9,8.3,32,0.00,,---,0.04,VWS V14.01,2013-03-09 03:52:00,
2013-03-08 22:57:00,35.4,8.5,30.18,NNE,27,4.0,9.2,32,0.00,,---,0.04,VWS V14.01,2013-03-09 03:57:00,
2013-03-08 23:02:00,35.4,7.8,30.18,ENE,59,0.0,9.2,31,0.00,,---,0.04,VWS V14.01,2013-03-09 04:02:00,
2013-03-08 23:07:00,35.2,7.7,30.18,North,7,4.0,10.5,31,0.00,,---,0.04,VWS V14.01,2013-03-09 04:07:00,
2013-03-08 23:12:00,35.2,7.7,30.18,NE,52,6.9,12.5,31,0.00,,---,0.04,VWS V14.01,2013-03-09 04:12:00,
2013-03-08 23:17:00,35.1,7.5,30.18,NE,56,11.0,11.0,31,0.00,,---,0.04,VWS V14.01,2013-03-09 04:17:00,
2013-03-08 23:22:00,34.9,8.0,30.18,North,356,4.9,10.5,32,0.00,,---,0.04,VWS V14.01,2013-03-09 04:22:00,
2013-03-08 23:27:00,34.5,7.7,30.18,North,2,6.3,9.2,32,0.00,,---,0.04,VWS V14.01,2013-03-09 04:27:00,
2013-03-08 23:32:00,34.5,7.7,30.18,NNE,29,8.3,9.2,32,0.00,,---,0.04,VWS V14.01,2013-03-09 04:32:00,
2013-03-08 23:37:00,34.3,7.6,30.15,NE,53,5.4,9.2,32,0.00,,---,0.04,VWS V14.01,2013-03-09 04:37:00,
2013-03-08 23:42:00,34.2,7.4,30.15,NNE,19,5.4,8.7,32,0.00,,---,0.04,VWS V14.01,2013-03-09 04:42:00,
2013-03-08 23:47:00,34.2,7.4,30.15,NNE,24,0.0,8.3,32,0.00,,---,0.04,VWS V14.01,2013-03-09 04:47:00,
2013-03-08 23:52:00,34.0,7.2,30.18,NNE,30,6.7,8.3,32,0.00,,---,0.04,VWS V14.01,2013-03-09 04:52:00,
2013-03-08 23:57:00,34.0,7.2,30.18,NE,42,6.7,7.8,32,0.00,,---,0.04,VWS V14.01,2013-03-09 04:57:00,